VTK648 UHHH-UZTT

Flight info

Callsign VTK648
Flight time N/A
Altitude 34000
Route RANOL4R RANOL B150 AMERA/K0893S1035 DCT 51N122E/K0885F340 DCT DIBOR B482 UGBIS A810 RINOP A45 USONA B155 IKT W241 BD M99 BOKIS DCT GENGA N147 TENRO DCT DOSOR DOSOR2T
Aircraft A343/H-SDE2E3FGHIJ4J5M1RWXY/LB1D1

Departure

Time 2026-04-25 02:33
Airport Khabarovsk Novy Airport (UHHH)

Arrival

Time N/A
Airport Tashkent International Airport (UZTT)
Time Latitude Longitude Altitude Speed Heading
2026-04-25 02:19 48.52751 135.17641 247 ft 0 kts 312°
2026-04-25 02:27 48.52752 135.17641 247 ft 1 kts 312°
2026-04-25 02:27 48.52770 135.17610 247 ft 7 kts 312°
2026-04-25 02:27 48.52822 135.17599 246 ft 9 kts 21°
2026-04-25 02:27 48.52886 135.17680 247 ft 14 kts 41°
2026-04-25 02:28 48.52934 135.17793 248 ft 8 kts 98°
2026-04-25 02:28 48.52902 135.17841 248 ft 9 kts 137°
2026-04-25 02:28 48.52879 135.17872 248 ft 2 kts 137°
2026-04-25 02:28 48.52843 135.17925 248 ft 13 kts 136°
2026-04-25 02:29 48.52764 135.18061 248 ft 22 kts 129°
2026-04-25 02:29 48.52660 135.18271 248 ft 27 kts 110°
2026-04-25 02:29 48.52746 135.18481 249 ft 28 kts 42°
2026-04-25 02:29 48.52901 135.18692 251 ft 32 kts 42°
2026-04-25 02:30 48.53068 135.18921 253 ft 30 kts 42°
2026-04-25 02:30 48.53224 135.19137 254 ft 29 kts 43°
2026-04-25 02:30 48.53379 135.19351 253 ft 31 kts 42°
2026-04-25 02:30 48.53548 135.19579 248 ft 35 kts 42°
2026-04-25 02:31 48.53732 135.19828 242 ft 38 kts 41°
2026-04-25 02:31 48.53919 135.20103 239 ft 31 kts 64°
2026-04-25 02:31 48.53845 135.20341 246 ft 24 kts 130°
2026-04-25 02:31 48.53729 135.20348 248 ft 17 kts 219°
2026-04-25 02:32 48.53588 135.20161 247 ft 47 kts 221°
2026-04-25 02:32 48.53222 135.19671 250 ft 92 kts 221°
2026-04-25 02:32 48.52657 135.18911 251 ft 129 kts 223°
2026-04-25 02:32 48.51997 135.18017 247 ft 158 kts 221°
2026-04-25 02:33 48.51206 135.16937 626 ft 156 kts 221°
2026-04-25 02:33 48.50489 135.15814 1184 ft 149 kts 222°
2026-04-25 02:33 48.49666 135.14718 1391 ft 167 kts 219°
2026-04-25 02:33 48.48751 135.13498 1619 ft 186 kts 221°
2026-04-25 02:34 48.47752 135.12073 1783 ft 211 kts 223°
2026-04-25 02:34 48.46658 135.10486 2209 ft 225 kts 223°
2026-04-25 02:34 48.45520 135.08829 2864 ft 230 kts 224°
2026-04-25 02:34 48.44522 135.06945 3557 ft 233 kts 242°
2026-04-25 02:35 48.44106 135.04585 4213 ft 240 kts 267°
2026-04-25 02:35 48.44412 135.02092 4908 ft 247 kts 284°
2026-04-25 02:35 48.44974 134.99633 5611 ft 250 kts 285°
2026-04-25 02:35 48.45557 134.97158 6305 ft 253 kts 285°
2026-04-25 02:36 48.46138 134.94646 6966 ft 255 kts 284°
2026-04-25 02:36 48.46712 134.92131 7674 ft 255 kts 283°
2026-04-25 02:36 48.47282 134.89608 8356 ft 255 kts 282°
2026-04-25 02:36 48.47851 134.87079 9026 ft 256 kts 282°
2026-04-25 02:37 48.48421 134.84532 9684 ft 257 kts 281°
2026-04-25 02:37 48.48993 134.81963 10198 ft 263 kts 281°
2026-04-25 02:37 48.49583 134.79286 10436 ft 277 kts 281°
2026-04-25 02:37 48.50205 134.76463 10652 ft 291 kts 281°
2026-04-25 02:38 48.50859 134.73504 10871 ft 305 kts 281°
2026-04-25 02:38 48.51546 134.70402 11086 ft 319 kts 281°
2026-04-25 02:38 48.52261 134.67175 11299 ft 331 kts 281°
2026-04-25 02:38 48.53000 134.63842 11635 ft 340 kts 281°
2026-04-25 02:39 48.53753 134.60450 12110 ft 344 kts 281°
2026-04-25 02:39 48.54514 134.57013 12656 ft 348 kts 281°
2026-04-25 02:39 48.55281 134.53540 13179 ft 351 kts 281°
2026-04-25 02:39 48.56051 134.50039 13715 ft 354 kts 280°
2026-04-25 02:40 48.56826 134.46507 14171 ft 357 kts 280°
2026-04-25 02:40 48.57609 134.42932 14629 ft 361 kts 280°
2026-04-25 02:40 48.58396 134.39328 15081 ft 364 kts 280°
2026-04-25 02:40 48.59191 134.35685 15536 ft 367 kts 279°
2026-04-25 02:41 48.59991 134.32012 15994 ft 371 kts 279°
2026-04-25 02:41 48.60798 134.28298 16454 ft 374 kts 279°
2026-04-25 02:41 48.61610 134.24554 16903 ft 378 kts 279°
2026-04-25 02:41 48.62429 134.20774 17350 ft 381 kts 279°
2026-04-25 02:42 48.63253 134.16962 17796 ft 384 kts 279°
2026-04-25 02:42 48.64083 134.13113 18322 ft 388 kts 281°
2026-04-25 02:42 48.64923 134.09215 18644 ft 393 kts 281°
2026-04-25 02:42 48.65688 134.05266 19079 ft 392 kts 277°
2026-04-25 02:43 48.66339 134.01267 19493 ft 393 kts 276°
2026-04-25 02:43 48.66945 133.97237 19903 ft 395 kts 275°
2026-04-25 02:43 48.67549 133.93175 20302 ft 398 kts 275°
2026-04-25 02:43 48.68166 133.89098 20832 ft 397 kts 278°
2026-04-25 02:44 48.68794 133.85076 21548 ft 392 kts 278°
2026-04-25 02:44 48.69429 133.81053 21889 ft 396 kts 278°
2026-04-25 02:44 48.70074 133.76991 22187 ft 400 kts 278°
2026-04-25 02:44 48.70728 133.72888 22542 ft 403 kts 278°
2026-04-25 02:45 48.71386 133.68759 22948 ft 406 kts 278°
2026-04-25 02:45 48.72052 133.64574 23088 ft 413 kts 279°
2026-04-25 02:45 48.72723 133.60345 23412 ft 416 kts 279°
2026-04-25 02:45 48.73400 133.56078 23707 ft 418 kts 279°
2026-04-25 02:46 48.74078 133.51795 23981 ft 420 kts 279°
2026-04-25 02:46 48.74757 133.47494 24255 ft 422 kts 279°
2026-04-25 02:46 48.75437 133.43167 24518 ft 424 kts 279°
2026-04-25 02:46 48.76118 133.38814 24783 ft 426 kts 278°
2026-04-25 02:47 48.76800 133.34448 25044 ft 428 kts 278°
2026-04-25 02:47 48.77485 133.30050 25293 ft 430 kts 278°
2026-04-25 02:47 48.78171 133.25635 25547 ft 432 kts 278°
2026-04-25 02:47 48.78858 133.21197 25812 ft 435 kts 279°
2026-04-25 02:48 48.79550 133.16706 25960 ft 439 kts 279°
2026-04-25 02:48 48.80244 133.12201 26210 ft 441 kts 279°
2026-04-25 02:48 48.80940 133.07673 26461 ft 443 kts 279°
2026-04-25 02:48 48.81637 133.03124 26690 ft 445 kts 279°
2026-04-25 02:49 48.82335 132.98555 26922 ft 446 kts 279°
2026-04-25 02:49 48.83102 132.93993 27245 ft 448 kts 284°
2026-04-25 02:49 48.84183 132.89593 27799 ft 445 kts 289°
2026-04-25 02:49 48.85441 132.85287 27964 ft 449 kts 290°
2026-04-25 02:50 48.86769 132.80980 28103 ft 453 kts 291°
2026-04-25 02:50 48.88138 132.76667 28280 ft 455 kts 292°
2026-04-25 02:50 48.89527 132.72338 28478 ft 458 kts 292°
2026-04-25 02:50 48.90921 132.67999 28655 ft 459 kts 292°
2026-04-25 02:51 48.92317 132.63637 28910 ft 460 kts 292°
2026-04-25 02:51 48.93708 132.59270 29179 ft 460 kts 292°
2026-04-25 02:51 48.95094 132.54898 29442 ft 460 kts 291°
2026-04-25 02:51 48.96476 132.50521 29693 ft 460 kts 291°
2026-04-25 02:52 48.97856 132.46136 29945 ft 460 kts 291°
2026-04-25 02:52 48.99233 132.41748 30197 ft 460 kts 292°
2026-04-25 02:52 49.00611 132.37353 30368 ft 461 kts 292°
2026-04-25 02:52 49.01991 132.32953 30544 ft 461 kts 292°
2026-04-25 02:53 49.03366 132.28549 30776 ft 461 kts 292°
2026-04-25 02:53 49.04734 132.24154 31007 ft 460 kts 291°
2026-04-25 02:53 49.06099 132.19753 31227 ft 459 kts 291°
2026-04-25 02:53 49.07459 132.15362 31414 ft 459 kts 291°
2026-04-25 02:54 49.08818 132.10967 31621 ft 459 kts 291°
2026-04-25 02:54 49.10175 132.06574 31826 ft 459 kts 291°
2026-04-25 02:54 49.11531 132.02175 31913 ft 459 kts 292°
2026-04-25 02:55 49.14222 131.93434 31901 ft 454 kts 292°
2026-04-25 02:55 49.16895 131.84716 31897 ft 454 kts 292°
2026-04-25 02:56 49.19562 131.75987 31899 ft 454 kts 291°
2026-04-25 02:56 49.22225 131.67241 31897 ft 454 kts 291°
2026-04-25 02:57 49.24884 131.58498 31895 ft 455 kts 292°
2026-04-25 02:57 49.27552 131.49732 31881 ft 455 kts 292°
2026-04-25 02:58 49.30213 131.40961 31885 ft 455 kts 292°
2026-04-25 02:58 49.32866 131.32175 31881 ft 455 kts 292°
2026-04-25 02:59 49.35510 131.23385 31878 ft 455 kts 292°
2026-04-25 02:59 49.38152 131.14574 31873 ft 456 kts 292°
2026-04-25 03:00 49.40790 131.05740 31876 ft 456 kts 292°
2026-04-25 03:00 49.43419 130.96906 31872 ft 456 kts 292°
2026-04-25 03:01 49.46041 130.88064 31882 ft 456 kts 292°
2026-04-25 03:01 49.48659 130.79209 31866 ft 453 kts 292°
2026-04-25 03:02 49.51239 130.70447 31862 ft 449 kts 292°
2026-04-25 03:02 49.53803 130.61699 31862 ft 449 kts 292°
2026-04-25 03:03 49.56362 130.52937 31861 ft 450 kts 292°
2026-04-25 03:03 49.58917 130.44161 31859 ft 450 kts 292°
2026-04-25 03:04 49.61471 130.35362 31852 ft 451 kts 292°
2026-04-25 03:04 49.64020 130.26543 31849 ft 451 kts 292°
2026-04-25 03:05 49.67828 130.13307 31849 ft 453 kts 292°
2026-04-25 03:05 49.70394 130.04347 31842 ft 460 kts 292°
2026-04-25 03:06 49.72974 129.95309 31842 ft 460 kts 292°
2026-04-25 03:06 49.75543 129.86274 31840 ft 460 kts 292°
2026-04-25 03:07 49.78100 129.77238 31835 ft 460 kts 292°
2026-04-25 03:07 49.80634 129.68171 31838 ft 460 kts 292°
2026-04-25 03:08 49.83163 129.59088 31829 ft 461 kts 292°
2026-04-25 03:08 49.85693 129.49984 31828 ft 461 kts 292°
2026-04-25 03:09 49.88220 129.40865 31824 ft 461 kts 292°
2026-04-25 03:09 49.90737 129.31747 31824 ft 461 kts 292°
2026-04-25 03:10 49.93249 129.22607 31822 ft 461 kts 292°
2026-04-25 03:10 49.95756 129.13451 31819 ft 462 kts 292°
2026-04-25 03:11 49.98256 129.04283 31822 ft 462 kts 292°
2026-04-25 03:11 50.00751 128.95102 31815 ft 462 kts 292°
2026-04-25 03:12 50.03236 128.85919 31814 ft 462 kts 292°
2026-04-25 03:12 50.05714 128.76724 31810 ft 462 kts 292°
2026-04-25 03:13 50.08184 128.67520 31810 ft 462 kts 292°
2026-04-25 03:13 50.10648 128.58311 31801 ft 461 kts 292°
2026-04-25 03:14 50.13089 128.49149 31804 ft 457 kts 292°
2026-04-25 03:14 50.15513 128.40004 31803 ft 458 kts 292°
2026-04-25 03:15 50.17939 128.30821 31799 ft 459 kts 292°
2026-04-25 03:15 50.20357 128.21632 31799 ft 459 kts 292°
2026-04-25 03:16 50.22501 128.12282 31798 ft 458 kts 285°
2026-04-25 03:16 50.24079 128.02656 31796 ft 459 kts 284°
2026-04-25 03:17 50.25561 127.92972 31791 ft 459 kts 283°
2026-04-25 03:17 50.27027 127.83276 31790 ft 459 kts 283°
2026-04-25 03:18 50.28493 127.73577 31788 ft 459 kts 283°
2026-04-25 03:18 50.29956 127.63878 31788 ft 459 kts 283°
2026-04-25 03:19 50.31414 127.54166 31786 ft 459 kts 284°
2026-04-25 03:19 50.32862 127.44458 31773 ft 460 kts 284°
2026-04-25 03:20 50.34303 127.34735 31775 ft 459 kts 284°
2026-04-25 03:20 50.35736 127.25007 31778 ft 459 kts 283°
2026-04-25 03:21 50.37158 127.15286 31779 ft 459 kts 283°
2026-04-25 03:21 50.38576 127.05538 31782 ft 460 kts 284°
2026-04-25 03:22 50.39987 126.95778 31791 ft 461 kts 283°
2026-04-25 03:22 50.41391 126.85999 31790 ft 460 kts 283°
2026-04-25 03:23 50.42786 126.76222 31796 ft 461 kts 283°
2026-04-25 03:23 50.44173 126.66431 31787 ft 460 kts 283°
2026-04-25 03:24 50.45553 126.56635 31800 ft 462 kts 283°
2026-04-25 03:24 50.46926 126.46814 31806 ft 461 kts 283°
2026-04-25 03:25 50.48291 126.36987 31802 ft 462 kts 283°
2026-04-25 03:25 50.49649 126.27155 31806 ft 462 kts 283°
2026-04-25 03:26 50.50998 126.17313 31804 ft 461 kts 283°
2026-04-25 03:26 50.52338 126.07475 31811 ft 462 kts 283°
2026-04-25 03:27 50.53671 125.97622 31805 ft 462 kts 283°
2026-04-25 03:27 50.54996 125.87769 31800 ft 461 kts 283°
2026-04-25 03:28 50.56299 125.77994 31815 ft 455 kts 283°
2026-04-25 03:28 50.57588 125.68276 31813 ft 455 kts 283°
2026-04-25 03:29 50.58871 125.58526 31815 ft 456 kts 283°
2026-04-25 03:29 50.60148 125.48764 31818 ft 457 kts 283°
2026-04-25 03:30 50.61416 125.38992 31821 ft 456 kts 283°
2026-04-25 03:30 50.62676 125.29218 31830 ft 456 kts 283°
2026-04-25 03:31 50.63928 125.19438 31827 ft 456 kts 283°
2026-04-25 03:31 50.65170 125.09661 31830 ft 456 kts 282°
2026-04-25 03:32 50.66404 124.99886 31829 ft 456 kts 282°
2026-04-25 03:32 50.67629 124.90111 31836 ft 456 kts 282°
2026-04-25 03:33 50.68846 124.80331 31836 ft 456 kts 282°
2026-04-25 03:33 50.70055 124.70540 31834 ft 456 kts 282°
2026-04-25 03:34 50.71256 124.60736 31812 ft 456 kts 282°
2026-04-25 03:34 50.72440 124.51006 31836 ft 449 kts 282°
2026-04-25 03:35 50.73602 124.41384 31835 ft 446 kts 282°
2026-04-25 03:35 50.74754 124.31780 31836 ft 447 kts 282°
2026-04-25 03:36 50.75900 124.22160 31836 ft 447 kts 282°
2026-04-25 03:36 50.77039 124.12528 31842 ft 447 kts 282°
2026-04-25 03:37 50.78168 124.02899 31843 ft 447 kts 282°
2026-04-25 03:37 50.79288 123.93269 31842 ft 447 kts 282°
2026-04-25 03:38 50.80402 123.83627 31843 ft 447 kts 282°
2026-04-25 03:38 50.81506 123.73995 31847 ft 446 kts 282°
2026-04-25 03:39 50.82600 123.64387 31852 ft 444 kts 282°
2026-04-25 03:39 50.83684 123.54786 31857 ft 444 kts 282°
2026-04-25 03:40 50.84761 123.45179 31854 ft 444 kts 282°
2026-04-25 03:40 50.85830 123.35561 31860 ft 444 kts 282°
2026-04-25 03:41 50.86887 123.25970 31845 ft 439 kts 282°
2026-04-25 03:41 50.87917 123.16541 31869 ft 434 kts 282°
2026-04-25 03:42 50.88937 123.07147 31869 ft 434 kts 282°
2026-04-25 03:42 50.89949 122.97753 31880 ft 434 kts 282°
2026-04-25 03:43 50.90955 122.88344 31876 ft 434 kts 282°
2026-04-25 03:43 50.91952 122.78934 31877 ft 434 kts 282°
2026-04-25 03:44 50.92940 122.69534 31890 ft 433 kts 282°
2026-04-25 03:44 50.93922 122.60136 31907 ft 433 kts 282°
2026-04-25 03:45 50.94895 122.50738 31903 ft 433 kts 282°
2026-04-25 03:45 50.95859 122.41338 31904 ft 433 kts 282°
2026-04-25 03:46 50.96817 122.31934 31914 ft 433 kts 282°
2026-04-25 03:46 50.97766 122.22527 31921 ft 432 kts 282°
2026-04-25 03:47 50.98706 122.13127 31927 ft 432 kts 282°
2026-04-25 03:47 50.99639 122.03734 31928 ft 432 kts 282°
2026-04-25 03:48 51.00891 121.94492 31932 ft 424 kts 286°
2026-04-25 03:48 51.02287 121.85500 31937 ft 418 kts 287°
2026-04-25 03:49 51.03699 121.76564 31939 ft 418 kts 287°
2026-04-25 03:49 51.05105 121.67623 31938 ft 418 kts 287°
2026-04-25 03:50 51.06496 121.58690 31944 ft 417 kts 286°
2026-04-25 03:50 51.07880 121.49740 31944 ft 417 kts 286°
2026-04-25 03:51 51.09256 121.40794 31949 ft 418 kts 286°
2026-04-25 03:51 51.10627 121.31829 31959 ft 417 kts 286°
2026-04-25 03:52 51.11988 121.22877 31960 ft 417 kts 286°
2026-04-25 03:52 51.13342 121.13923 31946 ft 417 kts 286°
2026-04-25 03:53 51.14690 121.04955 31958 ft 417 kts 286°
2026-04-25 03:53 51.16031 120.95985 31945 ft 417 kts 286°
2026-04-25 03:54 51.17365 120.87012 31953 ft 417 kts 286°
2026-04-25 03:54 51.18695 120.78016 31959 ft 418 kts 286°
2026-04-25 03:55 51.20022 120.68992 31963 ft 419 kts 286°
2026-04-25 03:55 51.21339 120.59975 31964 ft 418 kts 285°
2026-04-25 03:56 51.22650 120.50949 31958 ft 419 kts 285°
2026-04-25 03:56 51.23955 120.41912 31948 ft 419 kts 285°
2026-04-25 03:57 51.25256 120.32852 31962 ft 420 kts 285°
2026-04-25 03:57 51.26553 120.23764 31962 ft 421 kts 285°
2026-04-25 03:58 51.27841 120.14677 31950 ft 421 kts 285°
2026-04-25 03:58 51.29123 120.05569 31963 ft 421 kts 284°
2026-04-25 03:59 51.30402 119.96449 31963 ft 422 kts 284°
2026-04-25 03:59 51.31676 119.87307 31963 ft 424 kts 284°
2026-04-25 04:00 51.32949 119.78118 31965 ft 424 kts 284°
2026-04-25 04:00 51.34214 119.68924 31966 ft 424 kts 284°
2026-04-25 04:01 51.35472 119.59727 31963 ft 424 kts 284°
2026-04-25 04:01 51.36722 119.50518 31965 ft 424 kts 284°
2026-04-25 04:02 51.37966 119.41304 31966 ft 425 kts 284°
2026-04-25 04:02 51.39203 119.32076 31966 ft 425 kts 284°
2026-04-25 04:03 51.40433 119.22850 31965 ft 425 kts 284°
2026-04-25 04:03 51.41655 119.13619 31970 ft 425 kts 284°
2026-04-25 04:04 51.42871 119.04378 31972 ft 425 kts 284°
2026-04-25 04:04 51.44080 118.95127 31976 ft 426 kts 284°
2026-04-25 04:05 51.45289 118.85826 31972 ft 428 kts 284°
2026-04-25 04:05 51.46491 118.76500 31982 ft 428 kts 283°
2026-04-25 04:06 51.47686 118.67173 31985 ft 428 kts 283°
2026-04-25 04:06 51.48873 118.57843 31985 ft 428 kts 283°
2026-04-25 04:07 51.50054 118.48505 31986 ft 429 kts 283°
2026-04-25 04:07 51.51235 118.39106 31988 ft 431 kts 283°
2026-04-25 04:08 51.52410 118.29677 31986 ft 431 kts 283°
2026-04-25 04:08 51.53576 118.20252 31982 ft 432 kts 283°
2026-04-25 04:09 51.54743 118.10760 31990 ft 435 kts 283°
2026-04-25 04:09 51.55907 118.01234 31993 ft 436 kts 282°
2026-04-25 04:10 51.57070 117.91642 31994 ft 439 kts 282°
2026-04-25 04:10 51.58228 117.82016 31992 ft 439 kts 282°
2026-04-25 04:11 51.59949 117.67577 31987 ft 439 kts 282°
2026-04-25 04:12 51.60944 117.57902 31993 ft 440 kts 278°
2026-04-25 04:12 51.61545 117.48103 31992 ft 443 kts 277°
2026-04-25 04:13 51.62073 117.38255 31999 ft 442 kts 276°
2026-04-25 04:13 51.62582 117.28422 31997 ft 442 kts 276°
2026-04-25 04:14 51.63093 117.18585 31994 ft 442 kts 276°
2026-04-25 04:14 51.63599 117.08744 31999 ft 442 kts 276°
2026-04-25 04:15 51.64099 116.98894 31994 ft 444 kts 276°
2026-04-25 04:15 51.64593 116.88984 31994 ft 446 kts 276°
2026-04-25 04:16 51.65078 116.79050 32009 ft 446 kts 276°
2026-04-25 04:16 51.65555 116.69120 31993 ft 446 kts 276°
2026-04-25 04:17 51.66024 116.59174 32007 ft 446 kts 276°
2026-04-25 04:17 51.66485 116.49223 32007 ft 447 kts 275°
2026-04-25 04:18 51.66939 116.39237 32006 ft 448 kts 275°
2026-04-25 04:18 51.67384 116.29252 32008 ft 448 kts 275°
2026-04-25 04:19 51.67822 116.19252 32007 ft 448 kts 275°
2026-04-25 04:19 51.68251 116.09250 32005 ft 448 kts 275°
2026-04-25 04:20 51.68672 115.99244 32004 ft 449 kts 275°
2026-04-25 04:20 51.69086 115.89230 31997 ft 449 kts 275°
2026-04-25 04:21 51.69490 115.79197 31992 ft 449 kts 275°
2026-04-25 04:21 51.69885 115.69159 31996 ft 449 kts 275°
2026-04-25 04:22 51.70274 115.59132 31987 ft 449 kts 275°
2026-04-25 04:22 51.70653 115.49088 31982 ft 450 kts 275°
2026-04-25 04:23 51.71024 115.39042 31986 ft 450 kts 274°
2026-04-25 04:23 51.71386 115.29003 31985 ft 448 kts 274°
2026-04-25 04:24 51.71737 115.19011 31981 ft 447 kts 274°
2026-04-25 04:24 51.72079 115.09037 31979 ft 447 kts 274°
2026-04-25 04:25 51.72414 114.99048 31978 ft 447 kts 274°
2026-04-25 04:25 51.72740 114.89063 31976 ft 447 kts 274°
2026-04-25 04:26 51.73058 114.79070 31973 ft 447 kts 274°
2026-04-25 04:26 51.73367 114.69070 31970 ft 447 kts 274°
2026-04-25 04:27 51.73667 114.59078 31971 ft 447 kts 274°
2026-04-25 04:27 51.73959 114.49078 31964 ft 447 kts 274°
2026-04-25 04:28 51.74243 114.39072 31968 ft 447 kts 274°
2026-04-25 04:28 51.74519 114.29068 31959 ft 447 kts 274°
2026-04-25 04:29 51.74786 114.19060 31959 ft 447 kts 274°
2026-04-25 04:29 51.75044 114.09051 31959 ft 447 kts 274°
2026-04-25 04:30 51.75293 113.99040 31952 ft 447 kts 274°
2026-04-25 04:30 51.75534 113.89067 31961 ft 445 kts 274°
2026-04-25 04:31 51.75765 113.79116 31961 ft 445 kts 274°
2026-04-25 04:31 51.75988 113.69159 31953 ft 445 kts 274°
2026-04-25 04:32 51.76203 113.59204 31954 ft 445 kts 274°
2026-04-25 04:32 51.76409 113.49241 31954 ft 445 kts 274°
2026-04-25 04:33 51.76607 113.39282 31957 ft 445 kts 274°
2026-04-25 04:33 51.76797 113.29318 31961 ft 445 kts 273°
2026-04-25 04:34 51.76978 113.19356 31959 ft 445 kts 273°
2026-04-25 04:34 51.77151 113.09378 31962 ft 445 kts 273°
2026-04-25 04:35 51.77315 112.99411 31962 ft 445 kts 273°
2026-04-25 04:35 51.77472 112.89438 31965 ft 445 kts 273°
2026-04-25 04:36 51.77619 112.79471 31964 ft 445 kts 273°
2026-04-25 04:36 51.77758 112.69509 31969 ft 445 kts 273°
2026-04-25 04:37 51.77889 112.59539 31969 ft 445 kts 273°
2026-04-25 04:37 51.78011 112.49571 31974 ft 445 kts 273°
2026-04-25 04:38 51.78125 112.39600 31971 ft 445 kts 273°
2026-04-25 04:38 51.78230 112.29628 31971 ft 445 kts 273°
2026-04-25 04:39 51.78327 112.19659 31978 ft 445 kts 273°
2026-04-25 04:39 51.78415 112.09685 31974 ft 445 kts 272°
2026-04-25 04:40 51.78495 111.99716 31976 ft 445 kts 272°
2026-04-25 04:40 51.78566 111.89740 31976 ft 445 kts 272°
2026-04-25 04:41 51.78630 111.79764 31982 ft 445 kts 272°
2026-04-25 04:41 51.78685 111.69776 31982 ft 445 kts 272°
2026-04-25 04:42 51.79152 111.59863 31991 ft 442 kts 283°
2026-04-25 04:42 51.80875 111.50378 31991 ft 441 kts 289°
2026-04-25 04:43 51.82889 111.41026 31995 ft 441 kts 290°
2026-04-25 04:43 51.84937 111.31696 31994 ft 441 kts 290°
2026-04-25 04:44 51.86959 111.22369 31997 ft 440 kts 290°
2026-04-25 04:44 51.88960 111.13024 31999 ft 441 kts 290°
2026-04-25 04:45 51.90950 111.03664 32006 ft 441 kts 290°
2026-04-25 04:45 51.92934 110.94290 32009 ft 440 kts 290°
2026-04-25 04:46 51.94906 110.84934 32013 ft 439 kts 290°
2026-04-25 04:46 51.96868 110.75587 32011 ft 439 kts 290°
2026-04-25 04:47 51.98822 110.66234 32013 ft 439 kts 290°
2026-04-25 04:47 52.00768 110.56873 32020 ft 439 kts 290°
2026-04-25 04:48 52.02707 110.47500 32012 ft 439 kts 290°
2026-04-25 04:48 52.04631 110.38154 32026 ft 436 kts 290°
2026-04-25 04:49 52.06541 110.28835 32025 ft 436 kts 290°
2026-04-25 04:49 52.08446 110.19502 32026 ft 436 kts 289°
2026-04-25 04:50 52.10341 110.10168 32027 ft 436 kts 289°
2026-04-25 04:50 52.12230 110.00822 32018 ft 436 kts 290°
2026-04-25 04:51 52.14120 109.91425 32039 ft 439 kts 289°
2026-04-25 04:51 52.15950 109.81965 32037 ft 440 kts 285°
2026-04-25 04:52 52.16676 109.72081 32023 ft 443 kts 274°
2026-04-25 04:52 52.16703 109.62046 32023 ft 445 kts 272°
2026-04-25 04:53 52.16610 109.52003 32023 ft 445 kts 272°
2026-04-25 04:53 52.16510 109.41954 32040 ft 445 kts 272°
2026-04-25 04:54 52.16419 109.31903 32044 ft 445 kts 272°
2026-04-25 04:54 52.16334 109.21868 32025 ft 443 kts 272°
2026-04-25 04:55 52.16236 109.11909 32036 ft 439 kts 272°
2026-04-25 04:55 52.16130 109.01997 32027 ft 439 kts 272°
2026-04-25 04:56 52.16017 108.92065 32039 ft 440 kts 272°
2026-04-25 04:56 52.15895 108.82111 32038 ft 440 kts 272°
2026-04-25 04:57 52.15765 108.72162 32035 ft 441 kts 272°
2026-04-25 04:57 52.15625 108.62213 32033 ft 441 kts 272°
2026-04-25 04:58 52.15476 108.52258 32034 ft 441 kts 272°
2026-04-25 04:58 52.15321 108.42291 32038 ft 442 kts 272°
2026-04-25 04:59 52.15157 108.32300 32035 ft 443 kts 272°
2026-04-25 04:59 52.14983 108.22304 32038 ft 443 kts 272°
2026-04-25 05:00 52.14801 108.12305 32040 ft 443 kts 272°
2026-04-25 05:00 52.14612 108.02309 32038 ft 443 kts 272°
2026-04-25 05:01 52.14413 107.92317 32034 ft 441 kts 272°
2026-04-25 05:01 52.14206 107.82385 32034 ft 439 kts 272°
2026-04-25 05:02 52.13997 107.72510 32040 ft 436 kts 272°
2026-04-25 05:02 52.13789 107.62693 32035 ft 434 kts 272°
2026-04-25 05:03 52.13573 107.52878 32036 ft 435 kts 272°
2026-04-25 05:03 52.13349 107.43079 32031 ft 435 kts 272°
2026-04-25 05:04 52.12988 107.33235 32050 ft 436 kts 271°
2026-04-25 05:04 52.12539 107.23406 32054 ft 436 kts 271°
2026-04-25 05:05 52.12097 107.13577 32073 ft 436 kts 271°
2026-04-25 05:05 52.11667 107.03750 32073 ft 436 kts 271°
2026-04-25 05:06 52.11237 106.93920 32070 ft 437 kts 271°
2026-04-25 05:06 52.10801 106.84108 32090 ft 435 kts 271°
2026-04-25 05:07 52.10336 106.74344 32084 ft 434 kts 271°
2026-04-25 05:07 52.09844 106.64575 32108 ft 434 kts 271°
2026-04-25 05:08 52.09349 106.54812 32109 ft 434 kts 271°
2026-04-25 05:08 52.08850 106.45054 32118 ft 433 kts 271°
2026-04-25 05:09 52.08344 106.35350 32123 ft 430 kts 271°
2026-04-25 05:09 52.07838 106.25721 32138 ft 427 kts 271°
2026-04-25 05:10 52.07358 106.16114 32138 ft 427 kts 271°
2026-04-25 05:10 52.06881 106.06512 32133 ft 427 kts 271°
2026-04-25 05:11 52.06390 105.96900 32137 ft 428 kts 271°
2026-04-25 05:11 52.05888 105.87294 32086 ft 428 kts 271°
2026-04-25 05:12 52.05119 105.72909 32127 ft 427 kts 271°
2026-04-25 05:12 52.04598 105.63323 32122 ft 427 kts 271°
2026-04-25 05:13 52.04069 105.53740 32120 ft 427 kts 271°
2026-04-25 05:13 52.03826 105.44196 32124 ft 420 kts 279°
2026-04-25 05:14 52.04966 105.35054 32102 ft 411 kts 292°
2026-04-25 05:15 52.07878 105.22035 32106 ft 408 kts 294°
2026-04-25 05:15 52.09897 105.13429 32106 ft 409 kts 294°
2026-04-25 05:16 52.11894 105.04784 32107 ft 409 kts 294°
2026-04-25 05:16 52.13868 104.96130 32103 ft 409 kts 293°
2026-04-25 05:17 52.15833 104.87461 32080 ft 408 kts 293°
2026-04-25 05:17 52.17780 104.78825 32089 ft 406 kts 293°
2026-04-25 05:18 52.19716 104.70213 32094 ft 406 kts 293°
2026-04-25 05:18 52.20689 104.65876 32096 ft 406 kts 293°
2026-04-25 05:19 52.21315 104.63082 32097 ft 405 kts 293°
2026-04-25 05:19 52.23240 104.54461 32097 ft 405 kts 293°
2026-04-25 05:20 52.24355 104.49451 32102 ft 406 kts 293°
2026-04-25 05:20 52.25602 104.43672 32098 ft 407 kts 290°
2026-04-25 05:21 52.27035 104.35064 32105 ft 408 kts 288°
2026-04-25 05:21 52.28402 104.26234 32105 ft 408 kts 288°
2026-04-25 05:22 52.29766 104.17253 32097 ft 408 kts 288°
2026-04-25 05:22 52.31129 104.08258 32103 ft 408 kts 288°
2026-04-25 05:23 52.32488 103.99264 32087 ft 408 kts 288°
2026-04-25 05:23 52.33840 103.90279 32098 ft 407 kts 288°
2026-04-25 05:24 52.35184 103.81304 32097 ft 407 kts 288°
2026-04-25 05:24 52.36519 103.72333 32105 ft 407 kts 288°
2026-04-25 05:25 52.37847 103.63355 32108 ft 407 kts 287°
2026-04-25 05:25 52.39171 103.54353 32113 ft 407 kts 287°
2026-04-25 05:26 52.40485 103.45364 32109 ft 406 kts 287°
2026-04-25 05:26 52.41789 103.36396 32118 ft 405 kts 287°
2026-04-25 05:27 52.43086 103.27432 32121 ft 405 kts 287°
2026-04-25 05:27 52.44102 103.18340 32124 ft 410 kts 279°
2026-04-25 05:28 52.44270 103.08979 32124 ft 413 kts 276°
2026-04-25 05:28 52.44267 102.99589 32122 ft 413 kts 275°
2026-04-25 05:29 52.44232 102.90217 32128 ft 412 kts 275°
2026-04-25 05:29 52.44203 102.80846 32128 ft 412 kts 275°
2026-04-25 05:30 52.44176 102.71483 32129 ft 412 kts 275°
2026-04-25 05:30 52.44145 102.62126 32131 ft 411 kts 275°
2026-04-25 05:31 52.44108 102.52764 32128 ft 412 kts 275°
2026-04-25 05:31 52.44060 102.43406 32125 ft 411 kts 275°
2026-04-25 05:32 52.44005 102.34049 32128 ft 411 kts 275°
2026-04-25 05:32 52.43943 102.24706 32143 ft 411 kts 275°
2026-04-25 05:33 52.43875 102.15351 32125 ft 411 kts 274°
2026-04-25 05:33 52.43801 102.06006 32132 ft 411 kts 274°
2026-04-25 05:34 52.43716 101.96650 32103 ft 411 kts 274°
2026-04-25 05:34 52.43623 101.87333 32108 ft 409 kts 274°
2026-04-25 05:35 52.43522 101.78031 32095 ft 409 kts 274°
2026-04-25 05:35 52.43417 101.68727 32081 ft 409 kts 274°
2026-04-25 05:36 52.43307 101.59416 32070 ft 410 kts 274°
2026-04-25 05:36 52.43188 101.50093 32075 ft 410 kts 274°
2026-04-25 05:37 52.43058 101.40796 32077 ft 408 kts 274°
2026-04-25 05:37 52.42925 101.31544 32064 ft 407 kts 274°
2026-04-25 05:38 52.42784 101.22293 32072 ft 408 kts 274°
2026-04-25 05:38 52.42636 101.13019 32068 ft 408 kts 274°
2026-04-25 05:39 52.42482 101.03749 32063 ft 408 kts 273°
2026-04-25 05:39 52.42316 100.94484 32063 ft 408 kts 273°
2026-04-25 05:40 52.42145 100.85214 32072 ft 408 kts 273°
2026-04-25 05:40 52.41970 100.75947 32081 ft 408 kts 273°
2026-04-25 05:41 52.41787 100.66670 32083 ft 408 kts 273°
2026-04-25 05:41 52.41596 100.57393 32095 ft 409 kts 272°
2026-04-25 05:42 52.41395 100.48113 32085 ft 408 kts 272°
2026-04-25 05:42 52.41194 100.38846 32094 ft 408 kts 272°
2026-04-25 05:43 52.40982 100.29593 32101 ft 407 kts 272°
2026-04-25 05:43 52.40761 100.20347 32112 ft 408 kts 272°
2026-04-25 05:44 52.40528 100.11083 32111 ft 408 kts 272°
2026-04-25 05:44 52.40292 100.01831 32115 ft 408 kts 272°
2026-04-25 05:45 52.40050 99.92580 32117 ft 408 kts 272°
2026-04-25 05:45 52.39800 99.83295 32120 ft 410 kts 272°
2026-04-25 05:46 52.39541 99.73995 32119 ft 409 kts 272°
2026-04-25 05:46 52.39273 99.64709 32121 ft 409 kts 272°
2026-04-25 05:47 52.39000 99.55424 32141 ft 409 kts 272°
2026-04-25 05:47 52.38738 99.46146 32151 ft 409 kts 271°
2026-04-25 05:48 52.38447 99.36862 32152 ft 410 kts 271°
2026-04-25 05:48 52.38150 99.27654 32178 ft 410 kts 271°
2026-04-25 05:49 52.37836 99.18364 32225 ft 409 kts 271°
2026-04-25 05:49 52.37597 99.09121 32407 ft 405 kts 273°
2026-04-25 05:49 52.37562 99.04536 32577 ft 401 kts 274°
2026-04-25 05:50 52.37575 99.00021 32867 ft 394 kts 275°
2026-04-25 05:50 52.37625 98.95597 33239 ft 386 kts 276°
2026-04-25 05:50 52.37706 98.91256 33481 ft 381 kts 276°
2026-04-25 05:51 52.37909 98.82550 33230 ft 389 kts 276°
2026-04-25 05:51 52.38005 98.78085 32925 ft 397 kts 276°
2026-04-25 05:51 52.38059 98.73556 32787 ft 401 kts 275°
2026-04-25 05:52 52.38037 98.64478 33056 ft 396 kts 273°
2026-04-25 05:52 52.37950 98.60010 33365 ft 391 kts 272°
2026-04-25 05:52 52.37811 98.55601 33562 ft 388 kts 271°
2026-04-25 05:53 52.37409 98.46750 33362 ft 396 kts 270°
2026-04-25 05:53 52.37142 98.42246 33143 ft 402 kts 269°
2026-04-25 05:53 52.36809 98.37689 33067 ft 405 kts 268°
2026-04-25 05:53 52.36418 98.33151 33190 ft 403 kts 266°
2026-04-25 05:54 52.35970 98.28658 33415 ft 399 kts 265°
2026-04-25 05:54 52.35478 98.24222 33607 ft 396 kts 265°
2026-04-25 05:54 52.34392 98.15392 33527 ft 400 kts 264°
2026-04-25 05:55 52.33800 98.10922 33357 ft 405 kts 263°
2026-04-25 05:55 52.33188 98.06420 33259 ft 408 kts 263°
2026-04-25 05:55 52.31918 97.97430 33451 ft 405 kts 263°
2026-04-25 05:56 52.31272 97.92976 33580 ft 402 kts 262°
2026-04-25 05:56 52.30619 97.88555 33669 ft 401 kts 262°
2026-04-25 05:56 52.29283 97.79681 33517 ft 406 kts 262°
2026-04-25 05:57 52.28621 97.75191 33410 ft 408 kts 262°
2026-04-25 05:57 52.28002 97.70675 33387 ft 408 kts 264°
2026-04-25 05:57 52.26942 97.61640 33573 ft 403 kts 265°
2026-04-25 05:58 52.26065 97.52653 33698 ft 401 kts 267°
2026-04-25 05:58 52.25298 97.43622 33556 ft 405 kts 268°